User: anonymous
Location: Unspecified
(0.0000°N, 0.0000°E)
Time: 19:35:13
(UTC+02:00)
Language:

Meteor PRIRODA - Orbit

View from above orbital plane
View from above orbital plane
View from above satellite
View from above satellite

Ground track
Ground track

The orbit data is extracted from the following two-line orbital elements,

1 12585U 81065A   14109.17698508  .00008464  00000-0  47102-3 0  7740
2 12585 097.3158 102.9542 0019040 108.9387 021.5724 15.13729845787063
Epoch (UTC): 19 April 2014 04:14:51
Eccentricity: 0.0019040
inclination: 97.3158°
perigee height: 512 km
apogee height: 538 km
right ascension of ascending node: 102.9542°
argument of perigee: 108.9387°
revolutions per day: 15.13729845
mean anomaly at epoch: 21.5724°
orbit number at epoch: 78706

The dashed part of the orbit path shows where the satellite is in the earth's shadow,  

DLR